Northfield, Minnesota, United States (55057)
Lat: 44.46N, Lon: 93.16W
Wx Zone: MNZ077
Local Info
Past Weather Observations for Today

NOTE: This archive is for the closest National Weather Service station to Northfield. Information may differ from the station used for current weather conditions.

Click here for Long-term Archive

Time Weather Temperature Dewpoint Humidity Pressure Winds Precip Visibility
21:35
Overcast
9°F / -13°C -6°F / -21°C 51% 30.36 in
(1028 mb)
SSE 5.8 mph
(SSE 9 kph)
- 10SM
21:15
Overcast
9°F / -13°C -6°F / -21°C 51% 30.36 in
(1028 mb)
SSE 5.8 mph
(SSE 9 kph)
- 10SM
20:55
Overcast
7°F / -14°C -6°F / -21°C 56% 30.36 in
(1028 mb)
SSE 4.6 mph
(SSE 7 kph)
- 10SM
20:35
Overcast
7°F / -14°C -6°F / -21°C 56% 30.36 in
(1028 mb)
SSE 3.5 mph
(SSE 6 kph)
- 10SM
20:15
Overcast
5°F / -15°C -6°F / -21°C 60% 30.36 in
(1028 mb)
Calm - 10SM
19:55
Partly Cloudy
5°F / -15°C -6°F / -21°C 60% 30.36 in
(1028 mb)
Calm - 10SM
19:35
Clear
5°F / -15°C -6°F / -21°C 60% 30.39 in
(1029 mb)
Calm - 10SM
19:15
Clear
3°F / -16°C -6°F / -21°C 66% 30.39 in
(1029 mb)
Calm - 10SM
18:55
Clear
5°F / -15°C -6°F / -21°C 60% 30.42 in
(1030 mb)
Calm - 10SM
18:35
Clear
7°F / -14°C -6°F / -21°C 56% 30.42 in
(1030 mb)
SE 3.5 mph
(SE 6 kph)
- 10SM
18:15
Clear
9°F / -13°C -6°F / -21°C 51% 30.39 in
(1029 mb)
SE 4.6 mph
(SE 7 kph)
- 10SM
17:55
Clear
9°F / -13°C -6°F / -21°C 51% 30.42 in
(1030 mb)
Calm - 10SM
17:35
Clear
9°F / -13°C -8°F / -22°C 47% 30.42 in
(1030 mb)
S 5.8 mph
(S 9 kph)
- 10SM
17:15
Clear
10°F / -12°C -8°F / -22°C 44% 30.42 in
(1030 mb)
SE 3.5 mph
(SE 6 kph)
- 10SM
16:55
Clear
9°F / -13°C -6°F / -21°C 51% 30.42 in
(1030 mb)
S 4.6 mph
(S 7 kph)
- 10SM
16:35
Clear
10°F / -12°C -4°F / -20°C 52% 30.45 in
(1031 mb)
SSE 5.8 mph
(SSE 9 kph)
- 10SM
16:15
Clear
10°F / -12°C -6°F / -21°C 47% 30.45 in
(1031 mb)
S 3.5 mph
(S 6 kph)
- 10SM
15:55
Clear
10°F / -12°C -8°F / -22°C 44% 30.45 in
(1031 mb)
S 4.6 mph
(S 7 kph)
- 10SM
15:35
Clear
10°F / -12°C -9°F / -23°C 40% 30.45 in
(1031 mb)
SE 3.5 mph
(SE 6 kph)
- 10SM
15:15
Clear
10°F / -12°C -8°F / -22°C 44% 30.45 in
(1031 mb)
SE 4.6 mph
(SE 7 kph)
- 10SM
14:55
Clear
10°F / -12°C -6°F / -21°C 47% 30.48 in
(1032 mb)
SSE 3.5 mph
(SSE 6 kph)
- 10SM
14:35
Clear
10°F / -12°C -6°F / -21°C 47% 30.51 in
(1033 mb)
Calm - 10SM
14:15
Clear
9°F / -13°C -6°F / -21°C 51% 30.51 in
(1033 mb)
Calm - 10SM
13:55
Clear
9°F / -13°C -8°F / -22°C 47% 30.51 in
(1033 mb)
Calm - 10SM
13:35
Clear
9°F / -13°C -8°F / -22°C 47% 30.54 in
(1034 mb)
Calm - 10SM
13:15
Clear
7°F / -14°C -8°F / -22°C 51% 30.57 in
(1035 mb)
SW 3.5 mph
(SW 6 kph)
- 10SM
12:55
Clear
7°F / -14°C -9°F / -23°C 47% 30.57 in
(1035 mb)
SW 3.5 mph
(SW 6 kph)
- 10SM
12:35
Clear
5°F / -15°C -8°F / -22°C 55% 30.57 in
(1035 mb)
Calm - 10SM
12:15
Clear
3°F / -16°C -9°F / -23°C 55% 30.6 in
(1036 mb)
Calm - 10SM
11:55
Clear
3°F / -16°C -9°F / -23°C 55% 30.6 in
(1036 mb)
Calm - 10SM
11:35
Clear
1°F / -17°C -9°F / -23°C 60% 30.6 in
(1036 mb)
Calm - 10SM
11:15
Clear
1°F / -17°C -9°F / -23°C 60% 30.63 in
(1037 mb)
Calm - 10SM
10:55
Clear
°F / -18°C -11°F / -24°C 60% 30.63 in
(1037 mb)
Calm - 10SM
10:35
Clear
-2°F / -19°C -9°F / -23°C 71% 30.63 in
(1037 mb)
Calm - 10SM
10:15
Clear
-2°F / -19°C -11°F / -24°C 65% 30.63 in
(1037 mb)
Calm - 10SM
09:55
Clear
-4°F / -20°C -11°F / -24°C 71% 30.63 in
(1037 mb)
Calm - 10SM
09:35
Clear
-4°F / -20°C -13°F / -25°C 65% 30.63 in
(1037 mb)
Calm - 10SM
09:15
Clear
-6°F / -21°C -13°F / -25°C 70% 30.63 in
(1037 mb)
SW 3.5 mph
(SW 6 kph)
- 10SM
08:55
Clear
-9°F / -23°C -17°F / -27°C 70% 30.63 in
(1037 mb)
Calm - 10SM
08:35
Clear
-11°F / -24°C -18°F / -28°C 70% 30.63 in
(1037 mb)
Calm - 10SM
08:15
Clear
-9°F / -23°C -17°F / -27°C 70% 30.63 in
(1037 mb)
Calm - 10SM
07:55
Clear
-11°F / -24°C -18°F / -28°C 70% 30.63 in
(1037 mb)
Calm - 10SM
07:35
Clear
-13°F / -25°C -18°F / -28°C 76% 30.63 in
(1037 mb)
S 3.5 mph
(S 6 kph)
- 10SM
07:15
Clear
-13°F / -25°C -18°F / -28°C 76% 30.63 in
(1037 mb)
S 3.5 mph
(S 6 kph)
- 10SM
06:55
Clear
-13°F / -25°C -18°F / -28°C 76% 30.63 in
(1037 mb)
Calm - 10SM
06:35
Clear
-11°F / -24°C -17°F / -27°C 76% 30.63 in
(1037 mb)
Calm - 10SM
06:15
Clear
-9°F / -23°C -15°F / -26°C 77% 30.63 in
(1037 mb)
SW 3.5 mph
(SW 6 kph)
- 10SM
05:55
Clear
-11°F / -24°C -17°F / -27°C 76% 30.63 in
(1037 mb)
Calm - 10SM
05:35
Clear
-9°F / -23°C -17°F / -27°C 70% 30.63 in
(1037 mb)
Calm - 10SM
05:15
Clear
-8°F / -22°C -15°F / -26°C 70% 30.6 in
(1036 mb)
Calm - 10SM
04:55
Clear
-8°F / -22°C -13°F / -25°C 77% 30.6 in
(1036 mb)
Calm - 10SM
04:35
Clear
-8°F / -22°C -15°F / -26°C 70% 30.6 in
(1036 mb)
NNE 3.5 mph
(NNE 6 kph)
- 10SM
04:15
Clear
-8°F / -22°C -15°F / -26°C 70% 30.63 in
(1037 mb)
NW 4.6 mph
(NW 7 kph)
- 10SM
03:55
Clear
-9°F / -23°C -17°F / -27°C 70% 30.63 in
(1037 mb)
Calm - 10SM
03:35
Clear
-8°F / -22°C -15°F / -26°C 70% 30.63 in
(1037 mb)
Calm - 10SM
03:15
Clear
-6°F / -21°C -15°F / -26°C 64% 30.63 in
(1037 mb)
Calm - 10SM
02:55
Clear
-4°F / -20°C -13°F / -25°C 65% 30.63 in
(1037 mb)
WNW 4.6 mph
(WNW 7 kph)
- 10SM
02:35
Clear
-2°F / -19°C -13°F / -25°C 59% 30.63 in
(1037 mb)
NW 3.5 mph
(NW 6 kph)
- 10SM
02:15
Clear
-2°F / -19°C -13°F / -25°C 59% 30.63 in
(1037 mb)
NW 3.5 mph
(NW 6 kph)
- 10SM
01:55
Clear
-2°F / -19°C -13°F / -25°C 59% 30.63 in
(1037 mb)
NW 4.6 mph
(NW 7 kph)
- 10SM
01:35
Clear
-2°F / -19°C -13°F / -25°C 59% 30.6 in
(1036 mb)
WNW 4.6 mph
(WNW 7 kph)
- 10SM
01:15
Clear
-2°F / -19°C -13°F / -25°C 59% 30.63 in
(1037 mb)
W 3.5 mph
(W 6 kph)
- 10SM
00:54
Clear
°F / -18°C -11°F / -24°C 60% 30.6 in
(1036 mb)
NW 5.8 mph
(NW 9 kph)
- 10SM
00:35
Clear
-4°F / -20°C -13°F / -25°C 65% 30.6 in
(1036 mb)
NW 4.6 mph
(NW 7 kph)
- 10SM
00:15
Clear
-2°F / -19°C -13°F / -25°C 59% 30.6 in
(1036 mb)
WNW 5.8 mph
(WNW 9 kph)
- 10SM
Time Weather Temperature Dewpoint Humidity Pressure Winds Precip Visibility


Weather for websites

WeatherForYou.com, LLC is not responsible for any damages or problems caused by this service. Current weather conditions are obtained from the closest station including government and personal stations which may have varying degrees of accuracy. Weather forecasts are derived from the NOAA NDFD. Like all things, this site belongs to Jesus Christ... He just trusts us to maintain it. If you have any questions or comments email webmaster@weatherforyou.com

Copyright © 2016, WeatherForYou.com LLC. All rights reserved.